Flag for Micronesia Weather past 2 weeks in Kolonia, Ponape, Micronesia

Now
86 °F

Scattered clouds.


Feels Like: 96 °F
Forecast: 79 / 86 °F
Wind: 7 mph from Northeast

Location: Pohnpei

Current Time: Mar 6, 2015 at 10:37:30 AM

Latest Report: Mar 6, 2015 at 9:54 AM


Visibility: 15 mi

Pressure: 29.80 "Hg

Humidity: 71%

Dew point: 76 °F

Location of KoloniaLocation

Historic Weather in Kolonia — Graph

°F

Kolonia temperature yesterday

Maximum temperature yesterday: 86 °F (at 1:53 PM)
Minimum temperature yesterday: 81 °F (at 3:53 AM)
Average temperature yesterday: 83 °F

Past Weeks' High & Low Weather Summary

 TemperatureHumidityPressure
High89 °F (Feb 20, 1:55 PM)99% (Mar 1, 8:51 PM)29.90 "Hg (Mar 1, 8:51 PM)
Low74 °F (Feb 21, 3:52 AM)67% (Feb 20, 1:55 PM)29.70 "Hg (Mar 2, 3:50 PM)
Average82 °F82%29.81 "Hg
* Reported Feb 19 8:53 AM — Mar 6 8:53 AM, Kolonia, Weather by CustomWeather, © 2015

Note: Actual official high and low records may vary slightly from our data, if they occured in-between our weather recording intervals... More about our weather records

Advertising

Kolonia weather history for previous 24 hours

 ConditionsComfort  
Time TempWeatherWind HumidityBarometerVisibility
8:53 AM
Fri, Mar 6
84 °FBroken clouds.7 mph77%29.80 "Hg15 mi
7:52 AM82 °FMore clouds than sun.6 mph79%29.78 "Hg15 mi
6:53 AM81 °FMore clouds than sun.6 mph79%29.77 "Hg15 mi
5:53 AM81 °FPartly cloudy.7 mph79%29.75 "Hg15 mi
4:52 AM81 °FPartly cloudy.7 mph76%29.74 "Hg15 mi
3:52 AM81 °FPartly cloudy.3 mph79%29.75 "Hg15 mi
2:51 AM81 °FPartly cloudy.6 mph79%29.75 "Hg15 mi
1:53 AM82 °FOvercast.6 mph75%29.77 "Hg15 mi
12:53 AM82 °FMostly cloudy.8 mph75%29.78 "Hg15 mi
11:56 PM
Thu, Mar 5
82 °FOvercast.6 mph78%29.80 "Hg15 mi
10:53 PM82 °FOvercast.6 mph75%29.81 "Hg15 mi
9:53 PM81 °FMostly cloudy.6 mph76%29.80 "Hg15 mi
8:52 PM81 °FOvercast.7 mph79%29.80 "Hg15 mi
7:53 PM82 °FMostly cloudy.6 mph75%29.78 "Hg15 mi
6:51 PM82 °FMostly cloudy.7 mph74%29.75 "Hg15 mi
5:52 PM83 °FMore clouds than sun.7 mph74%29.74 "Hg15 mi
4:56 PM84 °FMore clouds than sun.7 mph73%29.73 "Hg15 mi
3:54 PM85 °FMore clouds than sun.10 mph72%29.72 "Hg15 mi
2:54 PM84 °FMore clouds than sun.12 mph73%29.72 "Hg15 mi
1:53 PM86 °FMore clouds than sun.8 mph68%29.75 "Hg15 mi
12:54 PM86 °FMore clouds than sun.12 mph71%29.77 "Hg15 mi
11:51 AM85 °FMore clouds than sun.8 mph70%29.80 "Hg15 mi
10:50 AM85 °FMore clouds than sun.9 mph72%29.83 "Hg15 mi
Weather by CustomWeather, © 2015

See weather overviewHow to use our weather pages